sat.trackr.live / text

‹ back to catalog

STARLINK-1460

NORAD 45676 · 2020-035V

PAYLOAD ACTIVE UNKNOWN

§ Identity

Operator
Country
US
Launch date
2020-06-04
Launch site
AFETR
Launch vehicle
Mass (kg)
RCS (m²)

Purposes: comms

External: N2YO · Heavens-Above · Gunter

§ Orbital elements

Epoch: 2026-09-12T10:40:54.640704Z

Period
93.29 min
Inclination
53.1532°
Eccentricity
0.0002901
Mean motion
15.43562977 rev/d
Perigee alt
433.6 km
Apogee alt
437.6 km
Semi-major
6,813.7 km
B*
8.2129e-4
RAAN
270.1294°
Arg perigee
35.1555°
Mean anomaly
324.9642°
Rev number
34,741

§ Raw data

STARLINK-14601 45676U 20035V   26255.44507686  .00037231  00000+0  82129-3 0  99982 45676  53.1532 270.1294 0002901  35.1555 324.9642 15.43562977347418

JSON: /api/v1/satellites/45676 · /tle

For live sub-satellite position, see the globe view (requires WebGL).

§ Visibility from observer

Set your observer location to see the next 7 days of passes ≥ 10°. The values pass through the URL so the page stays shareable.

No JS? Fill the form by hand. The geolocation button needs JavaScript.